Find USA 76

NORAD ID: 21808 Int'l Des: 1991-076 Owner: NRO/NRL Country: US operational
LEO

Live-Position

3D-Globus wird geladen...

Über USA 76

Beschreibung wird geladen...

Nächste Überflüge

Passes for default location (London). Set your location on the main map for personalized predictions.

Höhenverlauf

Loading altitude history...

Zweizeiliger Elementsatz

1 21808U 91076D 26105.28281934 .00004219 00000-0 33709-3 0 9994
2 21808 63.3002 321.7082 0885738 73.3238 296.3048 13.59101306 97482
Epoch: 15. Apr. 2026 • Age: 4 hours

Aktueller Status

Höhe 1155.9 km
Geschwindigkeit 7.22 km/s
Subsatellitenpunkt 1.35°N, 130.45°E
Startdatum 8. Nov. 1991
Alter 34.4 years
Typ military

Technische Details

Klassifizierung Payload
Masse 400.00 kg
Trockenmasse 400.00 kg
Gesamtmasse 400.00 kg
Länge 1.00 m
Durchmesser 1.00 m
Spannweite 10.00 m
Form Box + Ant
Hersteller NRL
Bus-Typ NOSS B SSU
Phasenstatus In Orbit
Besitzer/Staat NRO/NRL/US

Most Searched